Regional Weather Roundup
Issued by NWS San Angelo, TX

Home | Current Version | Previous Version | Text Only | Print | Product List | Glossary On
Versions: 1 2 3 4 5 6 7 8 9 10 11 12 13 14 15 16 17 18 19 20 21 22 23 24 25 26 27 28 29 30 31 32 33 34 35 36 37 38 39 40 41 42 43 44 45 46 47 48 49 50
000
ASUS44 KSJT 260810
RWRSJT
WEST CENTRAL TEXAS REGIONAL WEATHER ROUNDUP
NATIONAL WEATHER SERVICE SAN ANGELO TX
300 AM CDT TUE MAY 26 2015

NOTE: "FAIR" INDICATES FEW OR NO CLOUDS BELOW 12,000 FEET WITH NO
SIGNIFICANT WEATHER AND/OR OBSTRUCTIONS TO VISIBILITY.

TXZ049-054-064>066-071>073-076>078-098-099-113-114-127-128-139-140-
154-155-168>170-260900
...LOCATIONS ACROSS WEST CENTRAL TEXAS...

CITY           SKY/WX    TMP DP  RH WIND       PRES   REMARKS
SAN ANGELO     CLEAR     63  61  93 S6        29.90F
ABILENE        MOCLDY    62  60  93 S12       29.90S
DYESS AFB      CLEAR     62  58  85 S12       29.87F
JUNCTION       CLEAR     64  62  93 NE3       29.93F
SWEETWATER     CLEAR     63  60  88 S15       29.91F
BROWNWOOD      FOG       59  59 100 S7        29.92S VSB 1/2
COLEMAN        PTSUNNY   59  59 100 S5        29.92F FOG
SONORA         CLEAR     68  64  88 E6        29.97F
OZONA          FAIR      63  61  94 CALM      29.96R
BRADY          FOG       59  59 100 SE3       29.91F VSB 1/4
$$

TEXAS PANHANDLE/OKLAHOMA PANHANDLE

CITY           SKY/WX    TMP DP  RH WIND       PRES   REMARKS
AMARILLO       PTCLDY    53  49  86 SE13      29.90S
BORGER         CLEAR     57  47  69 CALM      29.89S
CANADIAN       PTCLDY    52  51  95 CALM      29.89R
DALHART        PTCLDY    53  48  83 N5        29.93F
DUMAS          MOSUNNY   54  48  81 SE6       29.91S
GUYMON         NOT AVBL
HEREFORD       MOSUNNY   56  53  87 MISG      29.90F
PAMPA          SUNNY     52  48  86 SE7       29.91R
PERRYTON       CLEAR     53  50  90 S3        29.90S
$$

SOUTHERN PANHANDLE/SOUTH PLAINS/ROLLING PLAINS

CITY           SKY/WX    TMP DP  RH WIND       PRES   REMARKS
LUBBOCK        PTCLDY    58  54  86 S7        29.92S
SNYDER         CLEAR     60  56  89 S6        29.90F
CHILDRESS      CLEAR     58  52  80 E3        29.90R
SEMINOLE       SUNNY     55  48  78 NW6       29.94R
$$

PERMIAN BASIN

CITY           SKY/WX    TMP DP  RH WIND       PRES   REMARKS
MIDLAND        CLEAR     66  57  72 S17       29.91F
ODESSA         CLEAR     66  53  63 S13       29.93S
WINK           CLEAR     62  37  39 CALM      29.91R
$$

FAR WEST/SOUTHWEST MOUNTAINS/TRANS PECOS

CITY           SKY/WX    TMP DP  RH WIND       PRES   REMARKS
ALPINE         SUNNY     52  30  43 S7        30.10R
DRYDEN           N/A     70  51  51 NW6       29.91R
EL PASO        CLEAR     68  36  30 NW10      30.00R
FORT STOCKTON  CLEAR     60  32  34 S7        29.95R
GUADALUPE PASS CLEAR     63  25  23 SW7       30.07S
MARFA          CLEAR     48  34  57 N9        30.08S
PECOS          SUNNY     55  44  64 CALM      29.91S
$$

DALLAS/FORT WORTH METROPLEX

CITY           SKY/WX    TMP DP  RH WIND       PRES   REMARKS
DFW AIRPORT    FOG       61  61 100 S8        29.91R VSB 1
FTW MEACHAM    CLOUDY    61  60  97 E3        29.90S FOG
DAL-EXECUTIVE  CLOUDY    64  63  96 SE7       29.92R
GRAND PRAIRIE  CLOUDY    64  64 100 SE6       29.93S
ADDISON        CLOUDY   N/A N/A N/A S8        29.93F
MESQUITE       CLOUDY    65  64  96 S7        29.94S
LANCASTER      CLOUDY    64  62  93 SE7       29.95R
$$

NORTH CENTRAL TEXAS

CITY           SKY/WX    TMP DP  RH WIND       PRES   REMARKS
SHRMAN/DENISON CLOUDY    61  61 100 S5        29.90S FOG
GAINESVILLE    CLOUDY    60  60  99 S5        29.92R FOG
BRIDGEPORT     CLOUDY    59  59 100 S5        29.92S FOG
DENTON         CLOUDY    59  59 100 S5        29.90S FOG
WAXAHACHIE     CLOUDY    64  64 100 SE5       29.94R FOG
GRANBURY         N/A     61  60  95 SE3       29.91S
$$

WESTERN NORTH TEXAS

CITY           SKY/WX    TMP DP  RH WIND       PRES   REMARKS
WICHITA FALLS  CLEAR     57  56  96 SE3       29.86S
VERNON         SUNNY     58  51  76 S3        29.88S
BRECKENRIDGE   MOSUNNY   61  60  98 S6        29.88S
COMANCHE       CLEAR     59  59 100 S6        29.90F
$$

CENTRAL AND SOUTH CENTRAL TEXAS

CITY           SKY/WX    TMP DP  RH WIND       PRES   REMARKS
AUSTIN/BERGSTM MOCLDY    65  65 100 E8        29.92R
WACO           CLOUDY    66  65  96 S5        29.92R
HILLSBORO      CLOUDY    65  64  95 SE7       29.93R FOG
TEMPLE         CLOUDY    64  61  88 S5        29.91F
KILLEEN-GRAY   CLOUDY    64  64 100 E7        29.93R FOG
FORT HOOD      FOG       64  64  99 SE5       29.92S VSB 3/4
GEORGETOWN     CLOUDY    66  66 100 NE5       29.93R VSB 3/4
LAGO VISTA     RAIN      67  65  96 E7        29.94R VSB 1/4
SAN MARCOS     NOT AVBL
NEW BRAUNFELS  MOCLDY    70  68  93 SE5       29.90R
RANDOLPH AFB   MOCLDY    70  69  96 S6        29.92R
SAN ANTONIO    CLOUDY    72  67  84 SE5       29.93R
STINSON        MOCLDY    71  68  90 NE7       29.90R
PLEASANTON     NOT AVBL
LA GRANGE      CLOUDY    68  67  98 CALM      29.92R
GIDDINGS       CLOUDY    65  64  97 E3        29.98R
$$

EAST TEXAS

CITY           SKY/WX    TMP DP  RH WIND       PRES   REMARKS
PARIS          CLOUDY    64  59  82 S12       29.92S
CLARKSVILLE    NOT AVBL
TYLER          CLOUDY    64  62  93 S8        29.96R
LONGVIEW       CLOUDY    64  62  93 S3        29.95R
PALESTINE      CLOUDY    65  64  97 SE9G16    29.97S
NACOGDOCHES    CLOUDY    64  64 100 S14       30.00R
$$

TEXAS HILL COUNTRY AND EDWARDS PLATEAU

CITY           SKY/WX    TMP DP  RH WIND       PRES   REMARKS
LLANO          FOG       64  64 100 CALM      29.96R VSB 1/4
HORSESHOE BAY  FOG       66  66  99 CALM      29.93R VSB<1/4
KERRVILLE      CLOUDY    68  66  95 CALM      29.94S
FREDERICKSBRG  CLEAR     62  61  97 CALM      29.94S
ROCKSPRINGS    MOSUNNY   68  66  94 SE8       29.96F FOG
HONDO          CLOUDY    74  70  87 E9        29.91S
UVALDE         CLOUDY    73  71  95 NE9       29.88F
DEL RIO        MOCLDY    75  69  81 E9        29.86R
$$

SOUTHEAST TEXAS

CITY           SKY/WX    TMP DP  RH WIND       PRES   REMARKS
COLLEGE STN    CLOUDY    66  65  96 SE9       29.96R
CALDWELL       CLOUDY    66  66 100 CALM      29.98R FOG
CROCKETT       NOT AVBL
BRENHAM        CLOUDY    68  67  97 E3        29.97R
HUNTSVILLE     CLOUDY    67  64  90 VRB3      29.99R
CONROE         CLOUDY    66  64  93 SE9       30.00R
HOUSTON BUSH   TSTM      67  63  87 SE8       29.97F
HOUSTON HOBBY  TSTM      68  67  96 S16G26    29.99F FOG
PERLAND        TSTM      70  67  90 VRB5      30.01F FOG
WHARTON        CLOUDY    67  66  97 E12       29.97R
$$

THE UPPER TEXAS COAST

CITY           SKY/WX    TMP DP  RH WIND       PRES   REMARKS
ORANGE         LGT RAIN  66  64  94 CALM      30.10S
PORT ARTHUR    CLOUDY    67  66  97 NE8       30.07F
GALVESTON      LGT RAIN  70  67  90 NW15      30.03S
ANGLETON       CLOUDY    65  65 100 E9        29.99R
BAY CITY       CLOUDY    72  69  91 E14       29.97R
$$

TEXAS COASTAL BEND, RIO GRANDE PLAINS DEEP SOUTH TEXAS

CITY           SKY/WX    TMP DP  RH WIND       PRES   REMARKS
VICTORIA       CLOUDY    74  74 100 S5        29.90R
BEEVILLE       FAIR      70  70 100 SE7       29.89S
ROCKPORT       CLOUDY    81  76  84 SE13      29.92S
PORT ARANSAS   CLOUDY    80  77  90 SE10      29.92R FOG
PORT LAVACA    CLOUDY    72  70  94 S13G24    29.91S
CORPUS CHRISTI CLOUDY    80  76  87 SE13      29.89F
KINGSVILLE NAS CLOUDY    80  79  96 SE10      29.87F FOG
COTULLA        MOCLDY    78  75  90 SE10      29.85S
LAREDO         CLEAR     78  75  90 SE12      29.85F
BROWNSVILLE    CLOUDY    80  77  90 SE9       29.86F FOG
PORT ISABEL    CLOUDY    80  77  90 SE12      29.86F FOG
HEBBRONVILLE     N/A     77  75  93 SE9       29.87F FOG
MCALLEN        CLOUDY    81  77  88 SE16      29.83F
WESLACO        CLOUDY    78  75  90 SE9       29.84F FOG
FALFURRIAS     CLOUDY    78  76  92 E5        29.86S
EDINBURG       CLOUDY    81  76  84 SE9       29.85S HAZE
$$


USA.gov is the U.S. government's official web portal to all federal, state and local government web resources and services.